Orbital Elements at Epoch 2459000.5 (2020-May-31.0) TDB
Reference: JPL 25 (heliocentric ecliptic J2000)
Element | Value | Uncertainty (1-sigma) | Units |
e | .1680195435352782 | 3.3605e-08 | |
a | 2.416605387104305 | 8.8895e-09 | au |
q | 2.010568453058146 | 8.0697e-08 | au |
i | 2.9791038743721 | 3.8817e-06 | deg |
node | 51.66377894280463 | 7.3131e-05 | deg |
peri | 198.1882411804238 | 7.418e-05 | deg |
M | 225.7959250067317 | 1.5016e-05 | deg |
tp | 2459512.028974010179 (2021-Oct-24.52897401) | 5.8574e-05 | TDB |
period | 1372.167206196245 3.76 | 7.5713e-06 2.073e-08 | d yr |
n | .2623586967931905 | 1.4476e-09 | deg/d |
Q | 2.822642321150465 | 1.0383e-08 | au |
|
| | Orbit Determination Parameters
Additional Information
|